Retour au catalogue

STARLINK-37962

ActifCommunicationsSSO
NORAD 69693·PAYLOAD·🇺🇸 United States

Lancé Jun 25, 2026 depuis Vandenberg Space Force Base

Loading…

Prochains Passages (prochaines 24 heures)

TLE

FraisSource: CelesTrak SupGP

Époque: Sep 15, 2026, 03:52 UTC

1 69693C 26145S   26258.16159722 -.00045151  00000+0 -14002-2 0  2581
2 69693  97.2851 104.9596 0001590  91.8277  90.9311 15.33492604    11

Suivez STARLINK-37962 en temps réel avec AllMySat

Download on the App Store